Time,TemperatureF,DewpointF,PressureIn,WindDirection,WindDirectionDegrees,WindSpeedMPH,WindSpeedGustMPH,Humidity,HourlyPrecipIn,Conditions,Clouds,dailyrainin,SoftwareType,DateUTC
2013-03-19 00:03:00,69.0,65.0,30.01,SSE,158,5.0,7.0,87,0.01,,,0.41,,2013-03-19 04:03:00,
2013-03-19 00:13:00,69.0,65.0,30.01,SSE,158,5.0,7.0,87,0.01,,,0.41,,2013-03-19 04:13:00,
2013-03-19 00:23:00,69.0,64.0,30.00,SSE,167,5.0,8.0,83,0.00,,,0.41,,2013-03-19 04:23:00,
2013-03-19 00:34:00,70.0,64.0,29.99,SSE,165,4.0,7.0,82,0.00,,,0.41,,2013-03-19 04:34:00,
2013-03-19 00:43:00,70.0,64.0,29.99,SSE,165,4.0,7.0,82,0.00,,,0.41,,2013-03-19 04:43:00,
2013-03-19 00:52:00,70.0,64.0,29.98,SSE,151,6.0,9.0,82,0.00,,,0.41,,2013-03-19 04:52:00,
2013-03-19 01:02:00,71.0,66.0,29.97,SSE,163,9.0,14.0,83,0.00,,,0.41,,2013-03-19 05:02:00,
2013-03-19 01:12:00,71.0,66.0,29.97,SSE,163,9.0,14.0,83,0.00,,,0.41,,2013-03-19 05:12:00,
2013-03-19 01:22:00,71.0,66.0,29.97,SSE,156,9.0,13.0,84,0.00,,,0.41,,2013-03-19 05:22:00,
2013-03-19 01:32:00,71.0,66.0,29.95,SSE,152,12.0,18.0,85,0.00,,,0.41,,2013-03-19 05:32:00,
2013-03-19 01:43:00,71.0,66.0,29.95,SSE,152,12.0,18.0,85,0.00,,,0.41,,2013-03-19 05:43:00,
2013-03-19 01:52:00,71.0,67.0,29.96,SSE,158,11.0,19.0,86,0.00,,,0.41,,2013-03-19 05:52:00,
2013-03-19 02:03:00,71.0,67.0,29.95,SSW,211,8.0,14.0,87,0.00,,,0.41,,2013-03-19 06:03:00,
2013-03-19 02:12:00,71.0,67.0,29.95,SSW,211,8.0,14.0,87,0.00,,,0.41,,2013-03-19 06:12:00,
2013-03-19 02:22:00,71.0,67.0,29.95,SSE,156,10.0,14.0,88,0.00,,,0.41,,2013-03-19 06:22:00,
2013-03-19 02:32:00,71.0,68.0,29.94,SSW,211,9.0,15.0,89,0.00,,,0.41,,2013-03-19 06:32:00,
2013-03-19 02:42:00,71.0,68.0,29.94,SSW,211,9.0,15.0,89,0.00,,,0.41,,2013-03-19 06:42:00,
2013-03-19 02:52:00,71.0,68.0,29.95,SW,214,5.0,10.0,90,0.00,,,0.41,,2013-03-19 06:52:00,
2013-03-19 03:03:00,71.0,68.0,29.96,SSW,207,5.0,12.0,90,0.00,,,0.41,,2013-03-19 07:03:00,
2013-03-19 03:12:00,71.0,68.0,29.96,SSW,207,5.0,12.0,90,0.00,,,0.41,,2013-03-19 07:12:00,
2013-03-19 03:22:00,71.0,68.0,29.94,SSW,208,5.0,10.0,90,0.00,,,0.41,,2013-03-19 07:22:00,
2013-03-19 03:32:00,70.0,67.0,29.93,SSW,194,6.0,11.0,91,0.00,,,0.41,,2013-03-19 07:32:00,
2013-03-19 03:42:00,70.0,67.0,29.93,SSW,194,6.0,11.0,91,0.00,,,0.41,,2013-03-19 07:42:00,
2013-03-19 03:52:00,71.0,69.0,29.90,SSW,210,13.0,26.0,92,0.00,,,0.41,,2013-03-19 07:52:00,
2013-03-19 04:03:00,71.0,69.0,29.88,SSW,195,13.0,24.0,92,0.00,,,0.41,,2013-03-19 08:03:00,
2013-03-19 04:12:00,71.0,69.0,29.88,SSW,195,13.0,24.0,92,0.00,,,0.41,,2013-03-19 08:12:00,
2013-03-19 04:22:00,71.0,69.0,29.88,SSW,195,13.0,24.0,92,0.00,,,0.41,,2013-03-19 08:22:00,
2013-03-19 04:32:00,71.0,68.0,29.93,NNW,329,5.0,7.0,91,0.00,,,0.41,,2013-03-19 08:32:00,
2013-03-19 04:42:00,71.0,68.0,29.93,NNW,329,5.0,7.0,91,0.00,,,0.41,,2013-03-19 08:42:00,
2013-03-19 04:53:00,71.0,68.0,29.92,North,1,4.0,11.0,90,0.00,,,0.41,,2013-03-19 08:53:00,
2013-03-19 05:03:00,71.0,68.0,29.93,NNE,20,2.0,8.0,90,0.00,,,0.41,,2013-03-19 09:03:00,
2013-03-19 05:12:00,71.0,68.0,29.93,NNE,20,2.0,8.0,90,0.00,,,0.41,,2013-03-19 09:12:00,
2013-03-19 05:23:00,71.0,68.0,29.94,NW,310,4.0,7.0,89,0.00,,,0.41,,2013-03-19 09:23:00,
2013-03-19 05:33:00,71.0,67.0,29.93,North,355,1.0,7.0,88,0.00,,,0.41,,2013-03-19 09:33:00,
2013-03-19 05:43:00,71.0,67.0,29.93,North,355,1.0,7.0,88,0.00,,,0.41,,2013-03-19 09:43:00,
2013-03-19 05:52:00,71.0,67.0,29.94,North,356,1.0,2.0,88,0.00,,,0.41,,2013-03-19 09:52:00,
2013-03-19 06:04:00,71.0,68.0,29.95,WSW,238,1.0,3.0,89,0.00,,,0.41,,2013-03-19 10:04:00,
2013-03-19 06:13:00,71.0,68.0,29.95,WSW,238,1.0,3.0,89,0.00,,,0.41,,2013-03-19 10:13:00,
2013-03-19 06:23:00,70.0,67.0,29.96,West,274,1.0,4.0,90,0.00,,,0.41,,2013-03-19 10:23:00,
2013-03-19 06:33:00,70.0,67.0,29.96,WNW,282,1.0,4.0,90,0.00,,,0.41,,2013-03-19 10:33:00,
2013-03-19 06:42:00,70.0,67.0,29.96,WNW,282,1.0,4.0,90,0.00,,,0.41,,2013-03-19 10:42:00,
2013-03-19 06:52:00,70.0,67.0,29.96,WNW,300,1.0,3.0,91,0.00,,,0.41,,2013-03-19 10:52:00,
2013-03-19 07:03:00,70.0,67.0,29.96,WNW,300,1.0,3.0,91,0.00,,,0.41,,2013-03-19 11:03:00,
2013-03-19 07:12:00,70.0,67.0,29.96,WNW,300,1.0,3.0,91,0.00,,,0.41,,2013-03-19 11:12:00,
2013-03-19 07:22:00,69.0,66.0,29.96,WSW,249,1.0,4.0,91,0.00,,,0.41,,2013-03-19 11:22:00,
2013-03-19 07:33:00,69.0,67.0,29.97,West,278,1.0,4.0,92,0.00,,,0.41,,2013-03-19 11:33:00,
2013-03-19 07:43:00,69.0,67.0,29.97,West,278,1.0,4.0,92,0.00,,,0.41,,2013-03-19 11:43:00,
2013-03-19 07:52:00,69.0,67.0,29.98,West,276,2.0,3.0,92,0.00,,,0.41,,2013-03-19 11:52:00,
2013-03-19 08:02:00,69.0,67.0,29.98,NW,304,2.0,6.0,92,0.00,,,0.41,,2013-03-19 12:02:00,
2013-03-19 08:12:00,69.0,67.0,29.98,NW,304,2.0,6.0,92,0.00,,,0.41,,2013-03-19 12:12:00,
2013-03-19 08:23:00,69.0,67.0,29.99,NW,318,3.0,7.0,93,0.00,,,0.41,,2013-03-19 12:23:00,
2013-03-19 08:33:00,69.0,67.0,30.00,NNW,333,2.0,8.0,93,0.00,,,0.41,,2013-03-19 12:33:00,
2013-03-19 08:43:00,69.0,67.0,30.00,NNW,333,2.0,8.0,93,0.00,,,0.41,,2013-03-19 12:43:00,
2013-03-19 08:52:00,69.0,67.0,29.99,West,260,0.0,6.0,93,0.00,,,0.41,,2013-03-19 12:52:00,
2013-03-19 09:02:00,69.0,67.0,30.00,WNW,301,1.0,3.0,93,0.00,,,0.41,,2013-03-19 13:02:00,
2013-03-19 09:12:00,69.0,67.0,30.00,WNW,301,1.0,3.0,93,0.00,,,0.41,,2013-03-19 13:12:00,
2013-03-19 09:23:00,69.0,67.0,30.01,West,280,1.0,4.0,93,0.00,,,0.41,,2013-03-19 13:23:00,
2013-03-19 09:33:00,70.0,68.0,30.01,WNW,297,1.0,3.0,93,0.00,,,0.41,,2013-03-19 13:33:00,
2013-03-19 09:42:00,70.0,68.0,30.01,WNW,297,1.0,3.0,93,0.00,,,0.41,,2013-03-19 13:42:00,
2013-03-19 09:52:00,70.0,68.0,30.01,WNW,297,1.0,3.0,93,0.00,,,0.41,,2013-03-19 13:52:00,
2013-03-19 10:02:00,70.0,68.0,30.00,NW,314,1.0,3.0,92,0.00,,,0.41,,2013-03-19 14:02:00,
2013-03-19 10:12:00,70.0,68.0,30.00,NW,314,1.0,3.0,92,0.00,,,0.41,,2013-03-19 14:12:00,
2013-03-19 10:22:00,70.0,67.0,30.01,NW,304,3.0,6.0,91,0.00,,,0.41,,2013-03-19 14:22:00,
2013-03-19 10:32:00,70.0,67.0,30.01,NW,312,3.0,7.0,90,0.00,,,0.41,,2013-03-19 14:32:00,
2013-03-19 10:42:00,70.0,67.0,30.01,NW,312,3.0,7.0,90,0.00,,,0.41,,2013-03-19 14:42:00,
2013-03-19 10:52:00,70.0,67.0,30.00,NNW,340,2.0,5.0,89,0.00,,,0.41,,2013-03-19 14:52:00,
2013-03-19 11:02:00,70.0,66.0,30.02,WNW,285,4.0,7.0,87,0.00,,,0.41,,2013-03-19 15:02:00,
2013-03-19 11:12:00,70.0,66.0,30.02,WNW,285,4.0,7.0,87,0.00,,,0.41,,2013-03-19 15:12:00,
2013-03-19 11:22:00,70.0,66.0,30.02,NNE,15,2.0,12.0,86,0.00,,,0.41,,2013-03-19 15:22:00,
2013-03-19 11:34:00,71.0,66.0,30.03,NW,316,2.0,7.0,85,0.00,,,0.41,,2013-03-19 15:34:00,
2013-03-19 11:44:00,71.0,66.0,30.03,NW,316,2.0,7.0,85,0.00,,,0.41,,2013-03-19 15:44:00,
2013-03-19 11:53:00,72.0,67.0,30.02,NE,44,4.0,8.0,84,0.00,,,0.41,,2013-03-19 15:53:00,
2013-03-19 12:04:00,72.0,67.0,30.03,NW,308,2.0,7.0,83,0.00,,,0.41,,2013-03-19 16:04:00,
2013-03-19 12:13:00,72.0,67.0,30.03,NW,308,2.0,7.0,83,0.00,,,0.41,,2013-03-19 16:13:00,
2013-03-19 12:24:00,73.0,67.0,30.03,NW,314,4.0,10.0,81,0.00,,,0.41,,2013-03-19 16:24:00,
2013-03-19 12:34:00,73.0,66.0,30.03,WNW,298,4.0,9.0,80,0.00,,,0.41,,2013-03-19 16:34:00,
2013-03-19 12:44:00,73.0,66.0,30.03,WNW,298,4.0,9.0,80,0.00,,,0.41,,2013-03-19 16:44:00,
2013-03-19 12:54:00,74.0,67.0,30.04,NW,326,3.0,8.0,79,0.00,,,0.41,,2013-03-19 16:54:00,
2013-03-19 13:03:00,75.0,67.0,30.03,NNE,25,3.0,8.0,76,0.00,,,0.41,,2013-03-19 17:03:00,
2013-03-19 13:14:00,75.0,67.0,30.03,NNE,25,3.0,8.0,76,0.00,,,0.41,,2013-03-19 17:14:00,
2013-03-19 13:23:00,75.0,67.0,30.03,NNE,23,3.0,8.0,76,0.00,,,0.41,,2013-03-19 17:23:00,
2013-03-19 13:34:00,75.0,66.0,30.03,North,360,1.0,9.0,74,0.00,,,0.41,,2013-03-19 17:34:00,
2013-03-19 13:44:00,75.0,66.0,30.03,North,360,1.0,9.0,74,0.00,,,0.41,,2013-03-19 17:44:00,
2013-03-19 13:53:00,77.0,67.0,30.02,ESE,118,2.0,6.0,71,0.00,,,0.41,,2013-03-19 17:53:00,
2013-03-19 14:03:00,76.0,68.0,30.01,NNW,333,1.0,9.0,77,0.00,,,0.41,,2013-03-19 18:03:00,
2013-03-19 14:14:00,76.0,68.0,30.01,NNW,333,1.0,9.0,77,0.00,,,0.41,,2013-03-19 18:14:00,
2013-03-19 14:23:00,75.0,68.0,30.00,NE,51,1.0,6.0,78,0.00,,,0.41,,2013-03-19 18:23:00,
2013-03-19 14:34:00,76.0,68.0,29.99,North,1,2.0,5.0,77,0.00,,,0.41,,2013-03-19 18:34:00,
2013-03-19 14:43:00,76.0,68.0,29.99,North,1,2.0,5.0,77,0.00,,,0.41,,2013-03-19 18:43:00,
2013-03-19 14:53:00,75.0,68.0,29.99,NW,319,2.0,4.0,78,0.00,,,0.41,,2013-03-19 18:53:00,
2013-03-19 15:03:00,75.0,68.0,29.99,ENE,63,1.0,4.0,78,0.00,,,0.41,,2013-03-19 19:03:00,
2013-03-19 15:12:00,75.0,68.0,29.99,ENE,63,1.0,4.0,78,0.00,,,0.41,,2013-03-19 19:12:00,
2013-03-19 15:22:00,75.0,68.0,29.98,NE,53,1.0,4.0,78,0.00,,,0.41,,2013-03-19 19:22:00,
2013-03-19 15:33:00,75.0,68.0,29.98,NW,316,3.0,6.0,78,0.00,,,0.41,,2013-03-19 19:33:00,
2013-03-19 15:43:00,75.0,68.0,29.98,NW,316,3.0,6.0,78,0.00,,,0.41,,2013-03-19 19:43:00,
2013-03-19 15:52:00,74.0,67.0,29.98,ENE,61,2.0,5.0,80,0.00,,,0.41,,2013-03-19 19:52:00,
2013-03-19 16:03:00,74.0,67.0,29.98,WNW,298,1.0,5.0,80,0.00,,,0.41,,2013-03-19 20:03:00,
2013-03-19 16:12:00,74.0,67.0,29.98,WNW,298,1.0,5.0,80,0.00,,,0.41,,2013-03-19 20:12:00,
2013-03-19 16:23:00,75.0,68.0,29.96,NNE,15,0.0,5.0,80,0.00,,,0.41,,2013-03-19 20:23:00,
2013-03-19 16:33:00,75.0,68.0,29.94,ESE,120,2.0,4.0,78,0.00,,,0.41,,2013-03-19 20:33:00,
2013-03-19 16:43:00,75.0,68.0,29.94,ESE,120,2.0,4.0,78,0.00,,,0.41,,2013-03-19 20:43:00,
2013-03-19 16:52:00,74.0,67.0,29.94,ESE,122,3.0,6.0,78,0.00,,,0.41,,2013-03-19 20:52:00,
2013-03-19 17:02:00,74.0,67.0,29.93,SSE,153,4.0,6.0,80,0.00,,,0.41,,2013-03-19 21:02:00,
2013-03-19 17:12:00,74.0,67.0,29.93,SSE,153,4.0,6.0,80,0.00,,,0.41,,2013-03-19 21:12:00,
2013-03-19 17:23:00,74.0,67.0,29.93,SSE,150,4.0,6.0,80,0.00,,,0.41,,2013-03-19 21:23:00,
2013-03-19 17:34:00,74.0,68.0,29.93,SE,133,3.0,5.0,81,0.00,,,0.41,,2013-03-19 21:34:00,
2013-03-19 17:43:00,74.0,68.0,29.93,SE,133,3.0,5.0,81,0.00,,,0.41,,2013-03-19 21:43:00,
2013-03-19 17:53:00,74.0,68.0,29.93,SE,133,3.0,5.0,81,0.00,,,0.41,,2013-03-19 21:53:00,
2013-03-19 18:03:00,74.0,68.0,29.93,SE,143,2.0,5.0,81,0.00,,,0.41,,2013-03-19 22:03:00,
2013-03-19 18:13:00,74.0,68.0,29.93,SE,143,2.0,5.0,81,0.00,,,0.41,,2013-03-19 22:13:00,
2013-03-19 18:24:00,75.0,68.0,29.93,SE,137,3.0,5.0,80,0.00,,,0.41,,2013-03-19 22:24:00,
2013-03-19 18:33:00,75.0,68.0,29.93,SSE,153,3.0,5.0,80,0.00,,,0.39,,2013-03-19 22:33:00,
2013-03-19 18:43:00,75.0,68.0,29.93,SSE,153,3.0,5.0,80,0.00,,,0.39,,2013-03-19 22:43:00,
2013-03-19 18:53:00,75.0,68.0,29.94,SE,127,1.0,3.0,79,0.00,,,0.39,,2013-03-19 22:53:00,
2013-03-19 19:03:00,75.0,68.0,29.94,SE,141,2.0,3.0,79,0.00,,,0.39,,2013-03-19 23:03:00,
2013-03-19 19:12:00,75.0,68.0,29.94,SE,141,2.0,3.0,79,0.00,,,0.39,,2013-03-19 23:12:00,
2013-03-19 19:22:00,75.0,68.0,29.94,SSE,161,2.0,4.0,80,0.00,,,0.39,,2013-03-19 23:22:00,
2013-03-19 19:33:00,75.0,68.0,29.95,SSE,163,1.0,3.0,80,0.00,,,0.36,,2013-03-19 23:33:00,
2013-03-19 19:43:00,75.0,68.0,29.95,SSE,163,1.0,3.0,80,0.00,,,0.36,,2013-03-19 23:43:00,
2013-03-19 19:52:00,74.0,68.0,29.96,SSE,167,2.0,4.0,81,0.00,,,0.36,,2013-03-19 23:52:00,
2013-03-19 20:03:00,72.0,67.0,29.96,SSW,198,2.0,5.0,83,0.00,,,0.36,,2013-03-20 00:03:00,
2013-03-19 20:13:00,72.0,67.0,29.96,SSW,198,2.0,5.0,83,0.00,,,0.36,,2013-03-20 00:13:00,
2013-03-19 20:22:00,72.0,67.0,29.97,SSW,205,3.0,5.0,84,0.00,,,0.36,,2013-03-20 00:22:00,
2013-03-19 20:33:00,72.0,68.0,29.97,South,183,2.0,5.0,86,0.00,,,0.32,,2013-03-20 00:33:00,
2013-03-19 20:42:00,72.0,68.0,29.97,South,183,2.0,5.0,86,0.00,,,0.32,,2013-03-20 00:42:00,
2013-03-19 20:52:00,71.0,67.0,29.97,SW,219,1.0,4.0,86,0.00,,,0.32,,2013-03-20 00:52:00,
2013-03-19 21:03:00,71.0,67.0,29.97,SSW,210,1.0,2.0,87,0.00,,,0.32,,2013-03-20 01:03:00,
2013-03-19 21:12:00,71.0,67.0,29.97,SSW,210,1.0,2.0,87,0.00,,,0.32,,2013-03-20 01:12:00,
2013-03-19 21:22:00,71.0,67.0,29.98,SSE,165,2.0,4.0,88,0.00,,,0.32,,2013-03-20 01:22:00,
2013-03-19 21:32:00,71.0,67.0,29.98,SW,224,0.0,3.0,88,0.00,,,0.03,,2013-03-20 01:32:00,
2013-03-19 21:42:00,71.0,67.0,29.98,SW,224,0.0,3.0,88,0.00,,,0.03,,2013-03-20 01:42:00,
2013-03-19 21:52:00,71.0,68.0,29.98,SE,143,1.0,2.0,89,0.00,,,0.03,,2013-03-20 01:52:00,
2013-03-19 22:02:00,71.0,68.0,29.98,SW,236,1.0,2.0,89,0.00,,,0.03,,2013-03-20 02:02:00,
2013-03-19 22:12:00,71.0,68.0,29.98,SW,236,1.0,2.0,89,0.00,,,0.03,,2013-03-20 02:12:00,
2013-03-19 22:22:00,71.0,68.0,29.98,SW,236,1.0,2.0,89,0.00,,,0.03,,2013-03-20 02:22:00,
2013-03-19 22:32:00,71.0,68.0,29.99,SW,232,0.0,0.0,90,0.00,,,0.01,,2013-03-20 02:32:00,
2013-03-19 22:42:00,71.0,68.0,29.99,SW,232,0.0,0.0,90,0.00,,,0.01,,2013-03-20 02:42:00,
2013-03-19 22:53:00,70.0,67.0,29.99,SW,217,1.0,3.0,91,0.00,,,0.01,,2013-03-20 02:53:00,
2013-03-19 23:02:00,70.0,67.0,29.99,SW,222,1.0,3.0,91,0.00,,,0.01,,2013-03-20 03:02:00,
2013-03-19 23:12:00,70.0,68.0,29.99,SSW,195,2.0,5.0,92,0.00,,,0.01,,2013-03-20 03:12:00,
2013-03-19 23:22:00,70.0,68.0,29.99,SSW,195,2.0,5.0,92,0.00,,,0.01,,2013-03-20 03:22:00,
2013-03-19 23:34:00,70.0,68.0,29.99,SSW,201,2.0,3.0,92,0.00,,,0.00,,2013-03-20 03:34:00,
2013-03-19 23:43:00,70.0,68.0,29.99,SSW,201,2.0,3.0,92,0.00,,,0.00,,2013-03-20 03:43:00,
2013-03-19 23:53:00,70.0,68.0,29.99,SW,223,2.0,4.0,92,0.00,,,0.00,,2013-03-20 03:53:00,